SCP
0 0 0 0 0 0 0 0 0 0 0 0 0 0 0 0 0 0 0 0 0 0 0 1 1 1 1 1 1 1 1 1 1 1 0 0 0 0 0 0 0 0 0 0 0 0 0 0 0
0 0 0 0 0 0 0 0 0 0 0 0 0 0 0 0 0 0 0 0 0 0 0 1 1 1 1 1 1 1 1 1 1 1 0 0 0 0 0 0 0 0 0 0 0 0 0 0 0
0 0 0 0 0 0 0 0 0 0 0 0 0 0 0 0 0 0 0 0 0 0 0 1 1 1 1 1 1 1 1 1 1 1 0 0 0 0 0 0 0 0 0 0 0 0 0 0 0
0 0 0 0 0 0 0 0 0 0 0 0 0 0 0 0 0 0 0 0 0 0 0 1 1 1 1 1 1 1 1 1 1 1 0 0 0 0 0 0 0 0 0 0 0 0 0 0 0
-0 0 0 0 0 0 0 0 0 0 0 0 0 0 0 0 0 0 0 0 0 1 1 1 1 1 1 1 1 1 1 1 1 1 0 0 0 0 0 0 0 0 0 0 0 0 0 0 0
0 0 0 0 0 0 0 0 0 0 0 0 0 0 0 0 0 0 0 0 1 1 1 1 1 1 1 1 1 1 1 1 1 1 0 0 0 0 0 0 0 0 0 0 0 0 0 0 0
0 0 0 0 0 0 0 0 0 0 0 0 0 0 0 0 0 0 0 1 1 1 1 1 1 1 1 1 1 1 1 1 1 1 0 0 0 0 0 0 0 0 0 0 0 0 0 0 0
0 0 0 0 0 0 0 0 0 0 0 0 0 0 0 0 0 1 1 1 1 1 1 1 1 1 1 1 1 1 1 1 1 0 0 0 0 0 0 0 0 0 0 0 0 0 0 0 0
0 0 0 0 0 0 0 0 0 0 0 0 0 0 0 1 1 1 1 1 1 0 0 1 1 1 1 1 1 1 1 1 0 0 0 0 0 0 0 0 0 0 0 0 0 0 0 0 0
0 0 0 0 0 0 0 0 0 0 0 0 0 0 1 1 1 1 1 1 0 0 0 0 1 1 1 1 1 1 1 1 0 0 0 0 0 0 0 0 0 0 0 0 0 0 0 0 0
0 0 0 0 0 0 0 0 0 0 0 0 0 1 1 1 1 1 1 1 0 0 0 0 1 1 1 1 1 1 1 0 0 0 0 0 0 0 0 0 0 0 0 0 0 0 0 0 0
0 0 0 0 0 0 0 0 0 0 0 0 0 1 1 1 1 1 1 0 0 0 0 0 1 1 1 1 1 1 0 0 0 0 0 0 0 0 0 0 0 0 0 0 0 0 0 0 0
0 0 0 0 0 0 0 0 0 0 0 0 0 1 1 1 1 1 1 0 0 0 0 0 0 1 1 0 0 0 0 0 0 0 0 0 0 0 0 0 0 0 0 0 0 0 0 0 0
0 0 0 0 0 0 0 0 0 0 0 0 0 0 1 1 1 1 0 0 0 0 0 0 0 0 1 1 1 1 0 0 0 0 0 0 0 0 0 0 0 0 0 0 0 0 0 0 0
0 0 0 0 0 0 0 0 0 0 0 0 0 0 0 0 0 0 0 0 0 0 0 0 0 0 0 1 1 1 1 1 0 0 0 0 0 0 0 0 0 0 0 0 0 0 0 0 0
0 0 0 0 0 0 0 0 0 0 0 0 0 0 0 0 0 0 0 0 0 0 0 0 0 0 0 1 1 1 1 1 1 0 0 0 0 0 0 0 0 0 0 0 0 0 0 0 0
0 0 0 0 0 0 0 0 0 0 0 0 0 0 0 0 0 0 0 0 0 0 0 0 0 0 0 0 1 1 0 0 0 0 0 0 0 0 0 0 0 0 0 0 0 0 0 0 0
0 0 0 0 0 0 0 0 0 0 0 0 0 0 0 0 0 0 0 0 0 0 0 0 0 0 0 0 0 0 0 0 0 0 0 0 0 0 0 0 0 0 0 0 0 0 0 0 0
0 0 0 0 0 0 0 0 0 0 0 0 0 0 0 0 0 0 0 0 0 0 0 0 0 0 0 0 0 0 0 0 0 0 0 0 0 0 0 0 0 0 0 0 0 0 0 0 0
0 0 0 0 0 0 0 0 0 0 0 0 0 0 0 0 0 0 1 0 0 0 0 0 0 0 0 0 0 0 0 0 0 0 0 0 0 0 0 0 0 0 0 0 0 0 0 0 0
0 0 0 0 0 0 0 0 0 0 0 0 0 0 0 0 0 1 1 0 0 0 0 0 0 0 0 0 0 0 0 0 0 0 0 0 0 0 0 0 0 0 0 0 0 0 0 0 0
0 0 0 0 0 0 0 0 0 0 0 0 0 0 0 0 0 0 0 0 0 0 0 0 0 0 0 0 0 0 0 0 0 0 0 0 0 0 0 0 0 0 0 0 0 0 0 0 0
0 0 0 0 0 0 0 0 0 0 0 0 0 0 0 0 0 0 0 0 0 0 0 0 0 0 0 0 0 0 0 0 0 0 0 0 0 0 0 0 0 0 0 0 0 0 0 0 0
0 0 0 0 0 0 0 0 0 0 0 0 0 0 0 0 0 0 0 0 0 0 0 0 0 0 0 0 0 0 0 0 0 0 0 0 0 0 0 0 0 0 0 0 0 0 0 0 0
0 0 0 0 0 0 0 0 0 0 0 0 0 0 0 0 0 0 0 0 0 0 0 0 0 0 0 0 0 0 0 0 0 0 0 0 0 0 0 0 0 0 0 0 0 0 0 0 0
0 0 0 0 0 0 0 0 0 0 0 0 0 0 0 0 0 0 0 0 0 0 0 0 0 0 0 0 0 0 0 0 0 0 0 0 0 0 0 0 0 0 0 0 0 0 0 0 0
0 0 0 0 0 0 0 0 0 0 0 0 0 0 0 0 0 0 0 0 0 0 0 0 0 0 0 0 0 0 0 0 0 0 0 0 0 0 0 0 0 0 0 0 0 0 0 0 0
0 0 0 0 0 0 0 0 0 0 0 0 0 0 0 0 0 0 0 0 0 0 0 0 0 0 0 0 0 0 0 0 0 0 0 0 0 0 0 0 0 0 0 0 0 0 0 0 0
0 0 0 0 0 0 0 0 0 0 0 0 0 0 0 0 0 0 0 0 0 0 0 0 0 0 0 0 0 0 0 0 0 0 0 0 0 0 0 0 0 0 0 0 0 0 0 0 0
0 0 0 0 0 0 0 0 0 0 0 0 0 0 0 0 0 0 0 0 0 0 0 0 0 0 0 0 0 0 0 0 0 0 0 0 0 0 0 0 0 0 0 0 0 0 0 0 0
Wind_Speed
0 2 2 2 5 5 1 3 2 2 1 0 2 3 3 3 3 2 1 6 9 10 9 12 14 14 14 14 15 15 15 14 14 14 14 14 13 12 12 12 11 11 10 10 10 10 10 10 10
1 2 3 4 5 2 4 3 2 2 2 2 2 3 2 1 2 3 3 5 9 10 8 10 14 14 14 14 14 14 14 14 14 14 13 13 13 12 12 12 11 10 10 10 9 10 10 9 9
1 2 4 5 3 3 3 3 3 1 1 1 2 2 2 1 2 3 4 9 8 8 7 10 16 15 14 14 14 14 14 14 13 13 13 12 12 11 11 11 11 10 9 9 9 9 9 9 8
3 4 5 5 1 4 4 4 2 0 1 1 3 2 1 1 2 4 8 11 9 7 6 9 15 15 14 14 13 13 13 13 13 12 12 12 11 11 11 10 10 9 9 8 8 8 8 7 7
4 5 5 2 4 4 4 4 2 1 1 1 3 2 1 2 4 8 10 10 10 7 6 7 13 14 14 14 13 12 12 12 12 12 11 11 10 10 10 10 9 9 9 8 7 7 7 6 6
5 5 4 2 5 5 4 2 1 1 1 2 3 3 1 1 5 7 8 7 7 8 6 6 12 13 13 13 13 12 11 11 11 11 10 10 9 9 9 9 8 8 7 7 7 6 6 6 5
5 4 3 3 3 4 3 0 2 2 1 2 4 3 1 1 3 6 7 6 6 6 6 5 6 8 11 12 12 11 11 10 10 10 10 9 9 9 8 8 7 7 7 7 6 6 5 5 5
5 5 1 2 3 4 3 1 0 2 2 2 5 6 4 4 6 6 6 5 5 4 4 4 4 4 5 6 11 11 10 10 9 10 9 9 9 8 8 6 6 6 6 6 6 6 5 4 4
4 4 3 5 5 4 2 1 1 0 1 1 2 3 4 10 10 8 6 4 4 4 3 3 4 4 4 4 7 8 9 8 8 7 9 7 3 3 3 5 6 5 5 5 6 5 5 4 4
4 3 7 6 5 3 3 2 2 0 1 1 1 2 8 11 10 10 8 8 7 6 5 4 4 4 4 4 4 3 3 3 3 3 3 3 3 2 3 4 5 5 5 5 5 5 4 3 2
4 6 5 5 5 4 3 3 2 4 4 6 7 8 11 11 9 9 9 8 8 7 6 5 5 5 4 3 3 2 2 2 3 3 3 3 2 2 2 1 2 2 3 2 3 3 2 2 2
3 5 5 4 3 2 3 2 2 5 8 6 8 11 11 12 12 11 10 8 6 6 6 5 6 5 4 3 3 3 2 2 3 3 4 3 2 2 2 2 2 2 2 2 2 2 2 2 2
3 4 4 4 4 3 3 4 4 5 5 3 7 9 11 11 9 7 7 6 6 6 6 6 6 6 5 4 3 3 3 3 3 3 3 4 3 3 3 2 2 2 2 2 2 2 2 2 2
3 3 5 5 4 2 3 4 2 6 2 5 8 8 9 10 9 7 7 7 7 7 7 6 6 5 5 4 3 3 3 3 3 3 3 4 3 4 3 3 2 2 2 2 2 2 2 2 2
1 3 6 3 1 2 1 3 4 5 4 5 6 6 7 7 8 9 9 8 7 7 6 6 6 5 5 5 4 3 3 3 3 3 3 4 4 4 3 3 2 2 2 3 2 2 2 2 2
2 2 3 5 2 2 3 6 6 3 5 5 5 5 5 5 6 6 5 5 6 5 5 5 6 5 5 4 3 2 3 4 3 3 3 4 4 4 4 3 2 2 2 2 2 2 2 2 1
3 1 3 7 2 1 2 6 5 2 5 5 5 5 5 4 4 4 5 5 5 6 5 5 5 5 5 4 3 3 3 3 3 3 3 3 4 5 4 3 2 3 3 2 2 2 2 2 1
4 3 4 6 4 2 3 5 5 3 5 5 4 4 4 5 5 5 4 4 4 4 4 4 4 4 4 4 3 2 2 2 2 2 3 4 3 4 4 3 3 3 3 2 2 3 2 2 1
4 4 6 9 5 2 5 6 6 3 4 4 4 4 4 5 3 3 4 4 4 4 4 5 5 4 4 3 3 3 2 2 2 1 2 3 4 4 4 3 3 3 3 3 3 3 2 1 1
5 5 6 8 3 2 4 5 4 4 6 6 7 6 5 3 2 3 4 4 5 5 5 5 5 5 5 4 3 2 3 2 2 1 1 2 3 3 4 4 4 4 3 3 3 3 2 1 1
5 6 6 6 4 2 1 4 3 3 2 2 3 4 4 5 6 5 5 5 5 5 6 5 5 5 4 4 3 3 2 2 1 1 1 2 2 3 3 3 3 3 3 3 3 3 3 2 1
6 6 6 4 1 3 1 3 6 3 2 2 3 3 4 4 4 5 5 5 5 5 5 5 5 5 5 5 5 5 4 3 3 3 2 2 2 2 3 4 4 4 3 3 3 3 2 3 2
6 2 2 2 2 1 1 2 7 1 3 5 4 5 5 4 5 6 6 7 5 5 4 4 4 4 4 5 5 5 3 2 1 2 2 2 2 3 3 4 4 4 3 3 3 3 3 2 2
3 4 4 4 3 2 3 3 7 4 6 4 4 4 5 4 4 4 4 4 4 4 4 4 4 3 4 4 4 5 5 4 4 3 2 2 1 1 2 3 3 3 3 3 3 3 3 3 3
4 5 4 4 3 5 2 3 8 6 4 5 5 5 4 4 4 4 4 4 4 5 5 5 5 4 3 4 4 4 5 5 5 5 4 3 2 1 2 2 2 2 3 3 3 3 3 3 3
3 7 6 4 5 5 2 5 7 3 2 2 2 3 3 3 4 5 5 5 5 5 5 6 5 4 4 4 3 3 3 3 3 4 3 3 3 3 3 3 3 3 3 3 3 2 3 2 3
4 3 5 5 1 2 5 5 7 1 1 1 2 2 3 4 4 4 4 4 4 5 5 6 6 4 4 4 4 3 3 4 4 4 3 3 2 2 3 3 3 3 3 3 3 2 3 3 3
4 6 5 4 3 3 5 4 5 4 3 2 2 3 4 3 3 3 4 4 4 4 4 4 5 5 4 4 3 3 3 4 4 3 3 3 3 2 2 3 3 3 3 3 3 3 3 3 3
2 3 4 3 4 4 3 7 5 5 5 5 5 4 4 5 5 4 4 3 4 3 4 4 4 3 3 3 3 3 3 3 3 3 4 4 3 3 3 3 3 3 3 3 3 3 3 3 3
4 5 6 4 3 3 3 8 5 3 3 4 4 3 3 4 4 3 4 3 3 4 4 4 4 4 3 3 3 3 3 3 3 3 3 3 3 3 3 3 3 4 4 4 4 4 4 4 4
Wind_Direction
161 105 103 71 55 49 327 270 248 297 310 41 94 113 132 143 163 190 92 134 136 144 152 154 153 148 143 140 137 134 131 129 128 127 128 129 130 130 130 130 129 127 124 121 119 117 118 117 115
120 113 64 60 77 50 289 268 270 240 195 132 71 83 87 73 69 107 119 140 139 144 148 154 155 150 146 143 140 138 137 135 134 133 133 134 134 134 134 133 131 128 125 123 121 119 117 116 118
135 82 79 71 98 176 248 253 234 267 207 156 92 64 97 129 134 155 157 141 135 142 147 159 157 154 151 147 144 143 141 141 139 138 138 138 138 138 138 137 135 132 128 126 124 120 115 114 114
92 50 54 69 236 227 226 246 228 230 3 77 118 85 57 44 166 153 139 141 140 146 152 162 158 156 154 152 150 147 144 144 144 142 142 142 143 143 143 143 141 138 134 131 128 124 117 115 115
62 73 56 18 275 263 247 248 213 181 157 97 118 122 1 14 95 125 139 145 147 148 153 162 158 158 157 156 154 152 149 148 147 147 147 147 148 147 146 146 145 145 143 143 138 130 125 120 119
60 67 80 288 282 282 270 239 157 145 180 149 129 131 239 96 123 141 140 143 148 150 153 158 162 162 161 160 158 156 154 153 150 149 151 152 153 153 152 150 150 148 148 149 145 141 136 130 126
105 103 161 221 273 295 288 200 145 160 168 183 151 136 251 136 147 138 133 131 137 144 148 156 160 164 166 165 162 160 159 157 155 154 155 157 157 159 159 157 154 151 150 150 147 147 141 133 132
124 108 154 233 237 268 286 1 130 157 203 157 144 159 205 182 137 119 113 116 127 134 146 152 153 153 161 166 166 164 162 161 160 161 161 161 161 164 165 160 159 158 156 154 148 145 141 134 133
95 86 214 221 209 249 271 355 322 12 130 122 163 183 176 136 132 124 119 124 143 154 156 155 152 148 154 162 168 165 165 164 161 165 167 161 149 148 159 162 165 164 162 158 150 142 139 132 131
103 160 227 219 203 225 270 243 211 147 207 218 100 98 125 135 145 150 156 164 174 180 179 170 163 156 157 165 153 144 149 147 148 147 152 139 132 143 146 153 155 154 149 141 135 133 133 122 105
162 203 236 246 229 229 262 271 192 164 235 219 193 167 150 152 160 168 175 179 184 181 177 179 172 165 164 161 148 141 137 135 140 142 144 134 126 126 121 112 119 110 109 93 98 93 91 101 110
197 243 233 256 245 226 230 231 225 210 231 219 180 162 159 165 174 181 181 185 176 172 182 177 173 170 170 158 155 154 151 151 159 163 157 144 137 128 126 121 111 97 95 100 93 94 95 97 108
224 261 260 257 275 242 224 233 235 254 253 163 149 158 166 173 180 186 183 179 174 180 182 180 172 173 169 159 166 164 166 163 160 154 154 151 147 145 140 136 123 115 113 117 116 115 112 108 106
237 258 282 280 270 256 211 260 218 255 201 141 156 169 173 175 178 179 182 182 183 188 185 180 174 173 166 168 174 169 169 163 155 160 160 156 150 147 150 143 134 132 137 133 133 129 121 106 104
292 316 318 301 274 251 156 302 243 238 154 155 167 172 171 179 181 189 190 186 184 185 180 176 176 169 169 172 173 165 164 156 159 163 161 158 152 150 151 149 151 153 140 130 118 106 102 110 102
9 13 319 297 293 269 146 260 268 212 159 177 176 169 169 179 189 194 186 181 177 172 172 176 173 165 170 167 159 155 161 159 162 161 159 167 167 157 148 156 163 155 139 129 126 115 108 102 102
19 322 277 295 292 315 176 251 271 214 173 186 181 175 176 178 187 194 183 176 173 170 166 166 158 159 163 154 147 147 147 154 158 158 160 170 169 161 154 163 165 148 136 136 146 126 133 132 124
251 258 271 275 286 347 279 262 266 216 174 184 186 183 185 194 204 196 177 167 161 153 150 151 147 146 144 136 125 122 121 133 140 166 168 166 167 162 154 156 159 150 139 141 141 132 122 135 140
216 234 263 269 271 276 260 265 265 216 174 187 198 202 204 213 204 173 163 155 143 140 146 154 148 149 146 150 154 158 168 160 153 176 163 163 165 163 160 158 152 152 150 156 152 139 127 131 128
220 248 264 281 282 231 267 278 260 212 198 197 198 206 209 204 197 183 165 159 163 166 165 159 157 157 163 168 165 162 150 146 156 162 148 157 156 160 165 159 157 155 145 144 148 142 139 138 132
233 213 232 251 322 339 293 308 291 276 221 192 196 199 199 193 198 196 183 183 179 178 175 172 170 161 162 151 127 112 92 86 119 163 183 190 171 170 163 163 153 151 151 160 164 154 147 156 145
255 231 216 230 256 280 199 275 279 261 275 231 223 210 206 201 192 193 186 188 194 194 180 172 168 162 161 153 153 150 155 169 193 182 184 185 178 173 174 170 167 162 159 164 174 158 153 149 169
222 214 188 213 190 276 300 220 283 291 261 249 230 220 210 199 190 191 193 192 190 182 172 167 160 156 154 162 164 160 158 161 153 149 165 181 180 183 183 176 169 166 167 174 175 166 162 166 175
162 70 52 50 78 272 240 190 276 239 228 242 225 219 209 199 191 191 183 165 161 154 152 150 153 157 161 165 170 173 173 168 158 163 171 178 178 189 188 176 169 173 174 182 184 181 175 182 181
104 92 26 353 1 256 246 202 251 253 235 218 214 214 208 194 182 176 172 167 163 161 160 161 160 171 178 172 178 183 179 176 177 176 177 172 178 200 207 182 175 182 187 188 177 181 191 190 191
173 146 160 205 229 272 281 234 254 270 270 230 194 179 172 179 178 178 183 177 170 167 165 164 170 180 180 176 183 180 176 174 179 176 171 177 188 201 193 187 188 194 189 187 180 188 203 198 207
148 184 170 146 191 271 271 279 299 315 354 62 117 139 173 188 185 181 176 168 166 169 172 172 169 173 179 179 171 175 178 176 180 176 169 177 191 195 186 187 194 197 192 191 183 196 209 201 211
139 147 105 124 165 254 282 271 258 270 260 247 201 194 200 189 177 171 169 165 170 172 162 152 164 177 181 174 171 180 185 184 179 169 181 189 196 193 180 194 200 203 201 195 188 199 205 202 219
125 111 114 126 162 172 256 269 237 225 227 220 226 210 196 190 187 179 170 162 156 146 144 153 159 160 159 166 171 173 177 176 171 179 195 196 197 196 198 204 206 206 203 197 192 206 204 209 228
173 171 149 157 228 188 201 265 278 236 233 216 218 210 198 191 181 162 150 139 139 145 144 154 164 168 171 165 165 172 174 170 178 194 205 198 203 206 207 205 207 207 204 197 196 211 216 218 228